Flag for Finland Weather past 2 weeks in Kokkola, Finland

Now
70 °F

Sunny.


Feels Like: 70 °F
Forecast: 50 / 59 °F
Wind: 14 mph from Southeast

Location: Kruunupyy

Current Time: Jul 6, 2015 at 7:09:07 PM

Latest Report: Jul 6, 2015 at 6:20 PM


Visibility: 10 mi

Pressure: 29.80 "Hg

Humidity: 40%

Dew point: 45 °F

Location of KokkolaLocation

Historic Weather in Kokkola — Graph

°F

Kokkola temperature yesterday

Maximum temperature yesterday: 57 °F (at 7:20 AM)
Minimum temperature yesterday: 45 °F (at 11:50 PM)
Average temperature yesterday: 54 °F

Past Weeks' High & Low Weather Summary

 TemperatureHumidityPressure
High82 °F (Jul 3, 4:20 PM)100% (Jun 22, 12:20 AM)30.24 "Hg (Jun 22, 12:20 AM)
Low36 °F (Jul 6, 3:20 AM)32% (Jun 28, 7:20 PM)29.47 "Hg (Jun 24, 10:50 PM)
Average58 °F79%29.89 "Hg
* Reported Jun 21 5:20 PM — Jul 6 5:50 PM, Kokkola, Weather by CustomWeather, © 2015

Note: Actual official high and low records may vary slightly from our data, if they occured in-between our weather recording intervals... More about our weather records

Advertising

Kokkola weather history for previous 24 hours

 ConditionsComfort  
Time TempWeatherWind HumidityBarometerVisibility
5:50 PM
Mon, Jul 6
68 °FSunny.15 mph40%29.83 "Hg10 mi
5:20 PM70 °FPassing clouds.13 mph38%29.83 "HgN/A
4:50 PM70 °FPassing clouds.12 mph38%29.86 "HgN/A
4:20 PM70 °FPassing clouds.13 mph35%29.86 "HgN/A
3:50 PM68 °FPassing clouds.12 mph35%29.89 "HgN/A
3:20 PM68 °FPassing clouds.12 mph33%29.89 "HgN/A
2:50 PM66 °FPassing clouds.14 mph35%29.92 "HgN/A
2:20 PM68 °FPassing clouds.12 mph33%29.92 "HgN/A
1:50 PM66 °FPassing clouds.13 mph35%29.95 "HgN/A
1:20 PM64 °FSunny.15 mph34%29.95 "Hg10 mi
12:50 PM64 °FPassing clouds.14 mph37%29.98 "HgN/A
12:20 PM64 °FPassing clouds.14 mph37%29.98 "HgN/A
11:50 AM63 °FPassing clouds.14 mph39%29.98 "HgN/A
11:20 AM61 °FPassing clouds.10 mph42%30.01 "HgN/A
10:50 AM61 °FPassing clouds.10 mph45%30.01 "HgN/A
10:20 AM61 °FPassing clouds.10 mph45%30.04 "HgN/A
9:50 AM59 °FPassing clouds.10 mph48%30.04 "HgN/A
9:20 AM59 °FPassing clouds.10 mph51%30.04 "HgN/A
8:50 AM57 °FPassing clouds.10 mph51%30.07 "HgN/A
8:20 AM55 °FPassing clouds.8 mph59%30.07 "HgN/A
7:50 AM54 °FPassing clouds.8 mph63%30.07 "HgN/A
7:20 AM52 °FSunny.6 mph72%30.09 "Hg10 mi
6:50 AM48 °FPassing clouds.5 mph76%30.09 "HgN/A
6:20 AM45 °FSunny.2 mph87%30.09 "Hg10 mi
5:50 AM41 °FSunny.2 mph93%30.12 "Hg10 mi
5:20 AM39 °FSunny.1 mph87%30.12 "Hg10 mi
4:50 AM37 °FSunny.No wind93%30.12 "Hg10 mi
4:20 AM36 °FClear.1 mph93%30.12 "Hg10 mi
3:50 AM36 °FClear.No wind100%30.12 "Hg10 mi
3:20 AM36 °FClear.1 mph93%30.12 "Hg10 mi
2:50 AM37 °FClear.No wind93%30.12 "Hg10 mi
2:20 AM37 °FClear.No wind93%30.12 "Hg6 mi
1:50 AM37 °FClear.No wind93%30.12 "Hg10 mi
1:20 AM39 °FClear.No wind93%30.12 "Hg10 mi
12:50 AM41 °FClear.1 mph87%30.12 "Hg10 mi
12:20 AM43 °FSunny.1 mph87%30.12 "Hg10 mi
11:50 PM
Sun, Jul 5
45 °FSunny.2 mph87%30.12 "Hg10 mi
11:20 PM46 °FSunny.3 mph82%30.12 "Hg10 mi
10:50 PM48 °FSunny.3 mph76%30.12 "Hg10 mi
10:20 PM50 °FSunny.5 mph71%30.12 "Hg10 mi
9:50 PM52 °FSunny.7 mph62%30.12 "Hg10 mi
9:20 PM52 °FPassing clouds.7 mph62%30.12 "HgN/A
8:50 PM54 °FPassing clouds.9 mph54%30.12 "HgN/A
8:20 PM54 °FPassing clouds.10 mph54%30.15 "HgN/A
7:50 PM54 °FPassing clouds.10 mph51%30.15 "HgN/A
7:20 PM55 °FPassing clouds.9 mph44%30.15 "HgN/A
Weather by CustomWeather, © 2015

See weather overviewHow to use our weather pages